CZ-2C DEB (55693 NORAD) Tracking and Keplerian Element Data

This shows tracking and keplerian element data for the satellite.

Feedback or suggestion? Click here.




ElementValue
Catalog55693
NameCZ-2C DEB
Epoch Orbit453
Epoch Day85.15876806
Epoch Year2023
RAAN157.8237
Inclination97.2401
Eccentricity0.0081012
Argument of Perigee125.7675
Mean Anonmoly234.9707
Mean Motion15.21302134
Decay Rate0.00175186
L11 55693U 23025D 23085.15876806 .00175186 00000+0 70197-2 0 9992
L22 55693 97.2401 157.8237 0081012 125.7675 234.9707 15.21302134 4537



Live tracking and technical data element details for CZ-2C DEB (NORAD 55693). CZ-2C DEB can be tracked NOW for your location showing map with azimuth and elevation plus other details from your city location.







IsCatalogInMostPopularTable: catalog: 55693, numindb: 3
Update: records affected: 1



GetName: 55693 CZ-2C DEB

Hit Count: updated at: Tue, 28 Mar 2023 02:59:27 GMT